{"data":{"norad_id":64333,"intl_designator":"2025-124S","name":"STARLINK-34207","alt_names":[],"object_type":"PAYLOAD","status":"ACTIVE","operator":null,"country":"US","launch_date":"2025-06-10","launch_site_code":"AFETR","launch_vehicle":null,"mission":null,"orbit_class":"UNKNOWN","rcs_meters":null,"size_class":null,"mass_kg":null,"dimensions":null,"purposes":["comms"],"wikipedia_slug":null,"has_3d_model":false,"image_url":null,"decayed_at":null,"tle_current":{"epoch":"2026-05-25T03:45:52.501824Z","epoch_age_seconds":58329,"freshness":"FRESH","line1":"1 64333U 25124S   26145.15685766  .00030568  00000+0  11149-2 0  9994","line2":"2 64333  43.0009  49.9895 0001406 267.7377  92.3313 15.27604209 53477","mean_motion":15.27604209,"eccentricity":0.0001406,"inclination_deg":43.0009,"raan_deg":49.9895,"arg_perigee_deg":267.7377,"mean_anomaly_deg":92.3313,"bstar":0.0011149,"rev_number":5347,"period_min":94.265254803314,"perigee_km":482.01193396877,"apogee_km":483.94127911493,"semimajor_km":6861.1136065419,"source":"CELESTRAK","updated_at":"2026-05-25T13:38:20.397712Z"}}}